When you browse on this site, cookies collect data to enhance your experience and personalize the content and advertising you see.
Visit our Privacy Policy to learn more. By continuing to use the site, you agree to this use of cookies and data.
  • In Portugal
  • List of Countries
  • For 7 days
  • Water Temperature
  • Satellite Maps
  • Weather Map
  • Weather Widgets
  • user-avatar
    Login

    Hourly Weather Mayrhofen

    Today, 24 May, Friday

    Time Temperature Precipitation Wind Pressure Humidity
    00:00 +2°C° 0 mm 1 mps 615 mmHg 88%
    01:00 +2°C° 0 mm 1 mps 615 mmHg 77%
    02:00 +2°C° 0 mm 1 mps 615 mmHg 75%
    03:00 +2°C° 0 mm 1 mps 615 mmHg 73%
    04:00 +2°C° 0 mm 1 mps 615 mmHg 71%
    05:00 +4°C° 0 mm 1 mps 616 mmHg 70%
    06:00 +6°C° 0 mm 1 mps 616 mmHg 68%
    07:00 +7°C° 0 mm 0 mps 617 mmHg 67%
    08:00 +10°C° 0 mm 1 mps 617 mmHg 61%
    09:00 +11°C° 0 mm 1 mps 618 mmHg 55%
    10:00 +13°C° 0 mm 1 mps 618 mmHg 50%
    11:00 +13°C° 0 mm 1 mps 618 mmHg 49%
    12:00 +14°C° 0 mm 2 mps 618 mmHg 48%
    13:00 +15°C° 0 mm 2 mps 618 mmHg 47%
    14:00 +15°C° 0 mm 2 mps 618 mmHg 48%
    15:00 +14°C° 0 mm 2 mps 618 mmHg 50%
    16:00 +14°C° 0 mm 2 mps 617 mmHg 52%
    17:00 +13°C° 0.1 mm 2 mps 617 mmHg 60%
    18:00 +10°C° 0.1 mm 2 mps 616 mmHg 68%
    19:00 +10°C° 0.1 mm 1 mps 615 mmHg 76%
    20:00 +8°C° 0.2 mm 1 mps 615 mmHg 81%
    21:00 +7°C° 0.2 mm 1 mps 615 mmHg 86%
    22:00 +6°C° 0.2 mm 1 mps 615 mmHg 90%
    23:00 +4°C° 0.1 mm 0 mps 615 mmHg 90%

    Tomorrow, 25 May, Saturday

    Time Temperature Precipitation Wind Pressure Humidity
    00:00 +4°C° 0.1 mm 0 mps 615 mmHg 90%
    01:00 +4°C° 0.1 mm 0 mps 615 mmHg 90%
    02:00 +4°C° 0.1 mm 0 mps 615 mmHg 90%
    03:00 +4°C° 0.1 mm 0 mps 614 mmHg 91%
    04:00 +4°C° 0.1 mm 0 mps 614 mmHg 91%
    05:00 +5°C° 0.1 mm 0 mps 615 mmHg 86%
    06:00 +7°C° 0.1 mm 0 mps 616 mmHg 82%
    07:00 +8°C° 0.1 mm 0 mps 616 mmHg 77%
    08:00 +9°C° 0.1 mm 0 mps 617 mmHg 72%
    09:00 +10°C° 0.1 mm 0 mps 617 mmHg 68%
    10:00 +13°C° 0.1 mm 1 mps 618 mmHg 63%
    11:00 +12°C° 0.7 mm 1 mps 617 mmHg 66%
    12:00 +12°C° 0.7 mm 1 mps 617 mmHg 69%
    13:00 +12°C° 0.7 mm 1 mps 617 mmHg 73%
    14:00 +11°C° 1.4 mm 1 mps 617 mmHg 77%
    15:00 +11°C° 1.4 mm 1 mps 616 mmHg 82%
    16:00 +10°C° 1.4 mm 1 mps 616 mmHg 87%
    17:00 +9°C° 2.2 mm 1 mps 616 mmHg 90%
    18:00 +8°C° 2.2 mm 1 mps 616 mmHg 93%
    19:00 +8°C° 2.2 mm 1 mps 615 mmHg 96%
    20:00 +7°C° 2.3 mm 1 mps 616 mmHg 96%
    21:00 +7°C° 2.3 mm 1 mps 616 mmHg 96%
    22:00 +6°C° 2.3 mm 1 mps 616 mmHg 97%
    23:00 +6°C° 1.8 mm 1 mps 616 mmHg 97%

    Day after tomorrow, 26 May, Sunday

    Time Temperature Precipitation Wind Pressure Humidity
    00:00 +6°C° 1.8 mm 1 mps 616 mmHg 97%
    01:00 +6°C° 1.8 mm 1 mps 616 mmHg 97%
    02:00 +6°C° 0.8 mm 1 mps 616 mmHg 96%
    03:00 +5°C° 0.8 mm 1 mps 615 mmHg 96%
    04:00 +5°C° 0.8 mm 1 mps 615 mmHg 96%
    05:00 +6°C° 0.1 mm 1 mps 616 mmHg 94%
    06:00 +7°C° 0.1 mm 1 mps 616 mmHg 92%
    07:00 +7°C° 0.1 mm 1 mps 616 mmHg 91%
    08:00 +8°C° 0.1 mm 1 mps 617 mmHg 85%
    09:00 +10°C° 0.1 mm 1 mps 617 mmHg 80%
    10:00 +10°C° 0.1 mm 2 mps 618 mmHg 75%
    11:00 +10°C° 0.2 mm 2 mps 618 mmHg 73%
    12:00 +12°C° 0.2 mm 2 mps 618 mmHg 71%
    13:00 +13°C° 0.2 mm 2 mps 618 mmHg 69%
    14:00 +13°C° 0.3 mm 2 mps 618 mmHg 70%
    15:00 +13°C° 0.3 mm 2 mps 618 mmHg 71%
    16:00 +13°C° 0.3 mm 2 mps 618 mmHg 71%
    17:00 +12°C° 0.5 mm 1 mps 617 mmHg 78%
    18:00 +11°C° 0.5 mm 1 mps 617 mmHg 85%
    19:00 +10°C° 0.5 mm 1 mps 617 mmHg 92%
    20:00 +9°C° 0.8 mm 1 mps 617 mmHg 93%
    21:00 +9°C° 0.8 mm 1 mps 617 mmHg 95%
    22:00 +8°C° 0.8 mm 1 mps 617 mmHg 97%
    23:00 +7°C° 0.6 mm 0 mps 616 mmHg 96%

    27 May, Monday

    Time Temperature Precipitation Wind Pressure Humidity
    00:00 +7°C° 0.6 mm 0 mps 616 mmHg 96%
    01:00 +7°C° 0.6 mm 0 mps 616 mmHg 96%
    02:00 +6°C° 0.3 mm 0 mps 616 mmHg 96%
    03:00 +6°C° 0.3 mm 0 mps 615 mmHg 96%
    04:00 +6°C° 0.3 mm 0 mps 615 mmHg 96%
    05:00 +7°C° 0.1 mm 0 mps 615 mmHg 94%
    06:00 +8°C° 0.1 mm 1 mps 615 mmHg 93%
    07:00 +9°C° 0.1 mm 1 mps 616 mmHg 91%
    08:00 +9°C° 0.3 mm 1 mps 616 mmHg 90%
    09:00 +10°C° 0.3 mm 1 mps 616 mmHg 88%
    10:00 +9°C° 0.3 mm 2 mps 616 mmHg 87%
    11:00 +9°C° 0.7 mm 2 mps 616 mmHg 87%
    12:00 +10°C° 0.7 mm 2 mps 615 mmHg 86%
    13:00 +10°C° 0.7 mm 2 mps 615 mmHg 85%
    14:00 +10°C° 0.5 mm 2 mps 615 mmHg 84%
    15:00 +10°C° 0.5 mm 2 mps 615 mmHg 84%
    16:00 +10°C° 0.5 mm 2 mps 615 mmHg 83%
    17:00 +10°C° 0.6 mm 2 mps 614 mmHg 86%
    18:00 +9°C° 0.6 mm 2 mps 614 mmHg 90%
    19:00 +10°C° 0.6 mm 1 mps 614 mmHg 93%
    20:00 +9°C° 0.7 mm 1 mps 614 mmHg 95%
    21:00 +8°C° 0.7 mm 1 mps 613 mmHg 96%
    22:00 +8°C° 0.7 mm 1 mps 613 mmHg 98%
    23:00 +8°C° 1.2 mm 1 mps 613 mmHg 98%

    28 May, Tuesday

    Time Temperature Precipitation Wind Pressure Humidity
    00:00 +7°C° 1.2 mm 1 mps 612 mmHg 97%
    01:00 +7°C° 1.2 mm 1 mps 612 mmHg 97%
    02:00 +7°C° 1.3 mm 1 mps 612 mmHg 97%
    03:00 +7°C° 1.3 mm 1 mps 611 mmHg 97%
    04:00 +7°C° 1.3 mm 1 mps 611 mmHg 97%
    05:00 +7°C° 1.2 mm 1 mps 611 mmHg 96%
    06:00 +7°C° 1.2 mm 1 mps 611 mmHg 96%
    07:00 +7°C° 1.2 mm 1 mps 610 mmHg 95%
    08:00 +6°C° 1.4 mm 0 mps 611 mmHg 94%
    09:00 +6°C° 1.4 mm 0 mps 611 mmHg 94%
    10:00 +7°C° 1.4 mm 0 mps 611 mmHg 93%
    11:00 +8°C° 1.4 mm 1 mps 611 mmHg 93%
    12:00 +8°C° 1.4 mm 1 mps 610 mmHg 93%
    13:00 +8°C° 1.4 mm 1 mps 610 mmHg 93%
    14:00 +8°C° 0.4 mm 1 mps 610 mmHg 90%
    15:00 +9°C° 0.4 mm 1 mps 610 mmHg 87%
    16:00 +8°C° 0.4 mm 2 mps 611 mmHg 84%
    17:00 +8°C° 0.3 mm 2 mps 611 mmHg 86%
    18:00 +7°C° 0.3 mm 2 mps 611 mmHg 89%
    19:00 +7°C° 0.3 mm 2 mps 611 mmHg 92%
    20:00 +6°C° 0.8 mm 2 mps 610 mmHg 94%
    21:00 +7°C° 0.8 mm 1 mps 610 mmHg 96%
    22:00 +6°C° 0.8 mm 1 mps 610 mmHg 98%
    23:00 +6°C° 2.3 mm 1 mps 610 mmHg 98%

    29 May, Wednesday

    Time Temperature Precipitation Wind Pressure Humidity
    00:00 +6°C° 2.3 mm 1 mps 610 mmHg 98%
    01:00 +6°C° 2.3 mm 1 mps 610 mmHg 98%
    02:00 +5°C° 2.3 mm 1 mps 610 mmHg 98%
    03:00 +5°C° 2.3 mm 1 mps 610 mmHg 98%
    04:00 +5°C° 2.3 mm 1 mps 610 mmHg 98%
    05:00 +5°C° 1.9 mm 1 mps 610 mmHg 98%
    06:00 +5°C° 1.9 mm 1 mps 611 mmHg 98%
    07:00 +5°C° 1.9 mm 1 mps 611 mmHg 97%
    08:00 +5°C° 1.3 mm 1 mps 611 mmHg 96%
    09:00 +5°C° 1.3 mm 1 mps 612 mmHg 95%
    10:00 +6°C° 1.3 mm 1 mps 612 mmHg 94%
    11:00 +6°C° 1.2 mm 1 mps 613 mmHg 94%
    12:00 +6°C° 1.2 mm 1 mps 613 mmHg 93%
    13:00 +6°C° 1.2 mm 1 mps 613 mmHg 93%
    14:00 +7°C° 0.4 mm 1 mps 614 mmHg 90%
    15:00 +6°C° 0.4 mm 2 mps 614 mmHg 86%
    16:00 +7°C° 0.4 mm 2 mps 615 mmHg 83%
    17:00 +6°C° 0.3 mm 2 mps 615 mmHg 86%
    18:00 +6°C° 0.3 mm 2 mps 615 mmHg 89%
    19:00 +5°C° 0.3 mm 2 mps 615 mmHg 92%
    20:00 +4°C° 0.1 mm 2 mps 616 mmHg 94%
    21:00 +4°C° 0.1 mm 2 mps 616 mmHg 95%
    22:00 +3°C° 0.1 mm 2 mps 616 mmHg 97%
    23:00 +3°C° 0 mm 2 mps 616 mmHg 97%
    Show more